Back to catalog

KUIPER-00188

AliveCommunicationsLEO
NORAD 67142·PAYLOAD·🇺🇸 United States

Launched Dec 15, 2025 from Cape Canaveral Space Force Station

Loading…

Next Passes (next 24 hours)

TLE

FreshSource: CelesTrak SupGP

Epoch: Sep 14, 2026, 14:04 UTC

1 67142C 25301K   26257.58618056  .00000937  00000+0  12272-3 0  2574
2 67142  51.9016 292.9640 0000452  60.2249 265.6287 14.79918106    13

Track KUIPER-00188 in real time with AllMySat

Download on the App Store